Tracking 19242 objects as of 16-Aug-2018
HD Live streaming from Space Station
objects crossing your sky now

IUS R/B(2)

Track IUS R/B(2) now!


NORAD ID: 25869
Int'l Code: 1999-040D
Perigee: 856.3 km
Apogee: 72,476.8 km
Inclination: 32.7 °
Period: 1,480.9 minutes
Semi major axis: 43037 km
RCS: 4.4547 m2 (large)
Launch date: July 23, 1999
Source: United States (US)
Launch site: AIR FORCE EASTERN TEST RANGE (AFETR)

Note: This is a ROCKET BODY
aabbcc
Your satellite tracking list
Your tracking list is empty




NASA's NSSDC Master Catalog

Two Line Element Set (TLE):
1 25869U 99040D   18227.35971503 -.00000157  00000-0 -67245-3 0  9997
2 25869  32.6939 112.1764 8320690 339.9059   1.3694  0.97236987 67694
Source of the keplerian elements: AFSPC